Airfield :
LOGIN :

Register | Disclaimer

   EN    FR    IT 

 










Legend :    VFR   Marginal VFR   IFR   Intensive IFR   Very Intensive IFR
Visi :
Ceiling :
>= 8 km
>= 3000ft
5 to 8 km
1000 to 3000 ft
1500m to 5 km
500 to 1000 ft
800 to 1500m
200 to 500 ft
< 800m
< 200 ft
Symbols :   Thunderstorms  Fog  Heavy snow  Heavy precipitations  Wind > 20 kt
SIGMETs :     Misc.  Thunderstorms  Icing  Turbulence  Mountain Waves  Volcanic Ashes






- Airport Elevation : 36 ft
- IATA code : LTQ


LFAT - Le Touquet

CURRENT METAR :
  • 070530Z AUTO 15003KT CAVOK 11/10 Q1022 NOSIG

EXPIRED METARs :
  • 070500Z AUTO 15004KT CAVOK 10/10 Q1022
  • 070430Z AUTO 14004KT CAVOK 10/09 Q1022
  • 070400Z AUTO 18003KT 9000 NSC 10/10 Q1022
  • 070330Z AUTO 15003KT 9000 NSC 10/10 Q1022
  • 070300Z AUTO 16002KT CAVOK 11/10 Q1022

TAF TAF LFAT
Valid from the 07 at 06:00 until the 07 at 15:00 UTC


070500Z 0706/0715 VRB02KT 9999 SCT030
BECMG 0709/0712 27010KT
ATIS : +33 3 21 06 62 84



MET'MAP, your aeronautical weather chart ! - Copyright ORBIFLY December 2007 - Disclaimer

ORBIFLY MET'MAP TEAM :

Programming & Development : Alexandra Zaïnal
Concept & original design : Baudouin d'Aumeries
Assistance for programming : Marc-Olivier Méhu
Technical & hardware support : Manuel Goepfert

Contact : metmap@orbifly.com




SOURCES & CREDITS :

   NOAA